EW0690 Weather Reports


time (UTC)temp
C
wind
direction
speed
KPH
gust
KPH
rain 1hr
cm
rain 24hr
cm
rain mn
cm
humidity
%
barometer
mb
20260507064513 18 278 0.0 3.2 0.00 0.00 0.00 63 1013.2
20260507063009 17 134 0.0 3.2 0.00 0.00 0.00 65 1013.1
20260507061509 17 50 3.2 4.8 0.00 0.00 0.00 66 1012.9
20260507060006 17 60 0.0 3.2 0.00 0.00 0.00 67 1012.8
20260507054505 16 79 0.0 1.6 0.00 0.00 0.00 70 1012.7
20260507053000 15 84 0.0 1.6 0.00 0.00 0.00 74 1012.6
20260507051502 14 65 0.0 1.6 0.00 0.00 0.00 77 1012.5
20260507050101 13 120 0.0 1.6 0.00 0.00 0.00 81 1012.4
20260507050001 13 120 0.0 1.6 0.00 0.00 0.00 81 1012.4
20260507044600 12 120 0.0 1.6 0.00 0.00 0.00 84 1012.2
20260507043055 11 134 0.0 3.2 0.00 0.00 0.00 86 1012.1
20260507041600 11 292 0.0 1.6 0.00 0.00 0.00 85 1012.0
20260507040104 11 215 0.0 0.0 0.00 0.00 0.00 86 1011.8
20260507034607 11 215 0.0 1.6 0.00 0.00 0.00 86 1011.7
20260507033102 12 9 0.0 1.6 0.00 0.00 0.00 84 1011.7
20260507031545 12 18 0.0 1.6 0.00 0.00 0.00 84 1011.6
20260507030045 12 356 0.0 1.6 0.00 0.00 0.00 82 1011.6
20260507024552 12 98 3.2 4.8 0.00 0.00 0.00 82 1011.5
20260507023039 12 194 0.0 3.2 0.00 0.00 0.00 81 1011.4
20260507021537 12 327 0.0 0.0 0.00 0.00 0.00 79 1011.4
20260507020037 13 6 1.6 3.2 0.00 0.00 0.00 78 1011.4
20260507014535 13 107 0.0 4.8 0.00 0.00 0.00 76 1011.2
20260507013037 13 197 0.0 1.6 0.00 0.00 0.00 78 1011.1
20260507011533 13 125 0.0 1.6 0.00 0.00 0.00 76 1011.2
20260507010036 14 228 0.0 4.8 0.00 0.00 0.00 74 1011.1
20260507004525 14 273 0.0 6.4 0.00 0.00 0.00 73 1011.2
20260507003022 15 56 3.2 6.4 0.00 0.00 0.00 68 1011.2
20260507001523 15 164 3.2 11.3 0.00 0.00 0.00 68 1011.1
20260507000121 15 208 4.8 11.3 0.00 0.00 0.00 68 1011.3
20260506234536 15 208 1.6 6.4 0.00 0.00 0.00 68 1011.2
20260506233019 15 246 4.8 14.5 0.00 0.00 0.00 67 1011.3
20260506231516 15 186 4.8 6.4 0.00 0.00 0.00 68 1011.4
20260506230017 15 195 4.8 12.9 0.00 0.00 0.00 65 1011.4
20260506224524 15 256 4.8 9.7 0.00 0.00 0.00 67 1011.4
20260506223011 16 260 3.2 8.0 0.00 0.00 0.00 64 1011.3
20260506221509 16 204 3.2 11.3 0.00 0.00 0.00 64 1011.1
20260506220017 16 190 4.8 8.0 0.00 0.00 0.00 63 1011.1
20260506214505 16 174 4.8 14.5 0.00 0.00 0.00 63 1011.1
20260506213005 16 191 4.8 12.9 0.00 0.00 0.00 62 1011.0
20260506211511 16 193 3.2 8.0 0.00 0.00 0.00 63 1011.0
20260506210005 16 176 0.0 6.4 0.00 0.00 0.00 61 1011.0
20260506204503 16 181 0.0 4.8 0.00 0.00 0.00 60 1010.8
20260506203001 16 195 1.6 8.0 0.00 0.00 0.00 59 1010.8
20260506201501 17 249 3.2 11.3 0.00 0.00 0.00 58 1010.7
20260506200112 17 193 6.4 16.1 0.00 0.00 0.00 57 1010.4
20260506194601 17 194 8.0 16.1 0.00 0.00 0.00 56 1010.2
20260506193112 17 163 12.9 20.9 0.00 0.00 0.00 55 1010.1
20260506191559 17 186 9.7 17.7 0.00 0.00 0.00 55 1009.8
20260506190059 17 188 11.3 19.3 0.00 0.00 0.00 56 1009.6
20260506184557 17 193 14.5 24.1 0.00 0.00 0.00 55 1009.5
20260506183101 17 160 11.3 20.9 0.00 0.00 0.00 57 1009.3
20260506181615 18 187 8.0 16.1 0.00 0.00 0.00 58 1009.2
20260506180054 18 190 11.3 17.7 0.00 0.00 0.00 61 1009.0
20260506174551 18 185 8.0 16.1 0.00 0.00 0.00 62 1009.1
20260506173120 18 148 4.8 9.7 0.00 0.00 0.00 65 1008.9
20260506171555 18 179 3.2 6.4 0.00 0.00 0.00 66 1008.7
20260506170057 18 193 3.2 16.1 0.00 0.00 0.00 67 1008.6
20260506164548 18 152 6.4 11.3 0.00 0.00 0.00 70 1008.6
20260506163046 18 145 4.8 11.3 0.00 0.00 0.00 71 1008.5
20260506161546 19 191 6.4 11.3 0.00 0.00 0.00 72 1008.6
20260506160058 18 148 3.2 9.7 0.00 0.00 0.00 76 1008.4
20260506154547 18 155 4.8 9.7 0.00 0.00 0.00 74 1008.3
20260506153043 18 172 6.4 9.7 0.00 0.00 0.00 74 1008.4
20260506151545 18 205 4.8 16.1 0.00 0.00 0.00 73 1008.5
20260506150043 18 125 8.0 12.9 0.00 0.00 0.00 76 1008.3
20260506144543 18 359 0.0 12.9 0.00 0.00 0.00 77 1008.6
20260506143039 18 113 8.0 20.9 0.00 0.00 0.00 80 1008.5
20260506141538 18 160 3.2 16.1 0.00 0.00 0.00 85 1008.5
20260506140038 18 191 9.7 14.5 0.00 0.00 0.00 86 1008.7
20260506134534 17 174 6.4 14.5 0.00 0.00 0.00 88 1009.0
20260506133034 17 139 9.7 17.7 0.00 0.00 0.00 88 1009.3
20260506131545 17 184 6.4 17.7 0.00 0.00 0.00 87 1009.3
20260506130039 17 153 6.4 11.3 0.00 0.00 0.00 87 1009.7
20260506124533 17 180 6.4 16.1 0.00 0.00 0.00 88 1009.7
20260506123032 17 206 4.8 16.1 0.00 0.00 0.00 87 1009.6
20260506121531 17 280 4.8 14.5 0.00 0.00 0.00 89 1009.4
20260506120031 19 283 9.7 19.3 0.00 0.00 0.00 79 1009.4
20260506114529 20 267 6.4 12.9 0.00 0.00 0.00 74 1009.2
20260506113029 20 136 6.4 12.9 0.00 0.00 0.00 75 1009.1
20260506111527 20 203 11.3 20.9 0.00 0.00 0.00 74 1009.1
20260506110026 20 142 12.9 27.4 0.00 0.00 0.00 74 1009.1
20260506104521 19 194 8.0 19.3 0.00 0.00 0.00 81 1009.4
20260506103029 18 185 6.4 25.7 0.00 0.00 0.00 83 1009.2
20260506101514 17 77 6.4 19.3 0.00 0.00 0.00 92 1009.4
20260506100011 17 129 8.0 14.5 0.00 0.00 0.00 95 1009.7
20260506094504 16 134 8.0 14.5 0.00 0.00 0.00 96 1009.9
20260506093004 15 84 9.7 16.1 0.00 0.00 0.00 96 1009.9
20260506091559 15 113 11.3 19.3 0.00 0.00 0.00 97 1009.9
20260506090058 15 103 8.0 14.5 0.00 0.00 0.00 97 1009.9
20260506084557 14 145 4.8 14.5 0.00 0.00 0.00 97 1010.0
20260506083103 14 131 6.4 12.9 0.00 0.00 0.00 97 1010.0
20260506081557 14 102 8.0 16.1 0.00 0.00 0.00 97 1010.0
20260506073052 14 158 4.8 11.3 0.00 0.00 0.00 97 1009.8
20260506071553 13 131 6.4 11.3 0.00 0.00 0.00 97 1009.9